Home   Weather   Bakersfield   Past weeks

Flag for USA Past Weather in Bakersfield, California, USA — Yesterday and Last 2 Weeks

Now
57 °F

Sunny.


Feels Like: 57 °F
Forecast: 36 / 56 °F
Wind: 3 mph from North

Location: Meadows Field

Current Time: Feb 24, 2017 at 5:00:34 pm

Latest Report: Feb 24, 2017 at 3:54 pm


Visibility: 10 mi

Pressure: 30.20 "Hg

Humidity: 37%

Dew Point: 31 °F

Location of BakersfieldLocation

Past Weather in Bakersfield — Graph

°F

Bakersfield Temperature Yesterday

Maximum temperature yesterday: 52 °F (at 1:54 pm)
Minimum temperature yesterday: 37 °F (at 5:54 am)
Average temperature yesterday: 45 °F

High & Low Weather Summary for the Past Weeks

 TemperatureHumidityPressure
High74 °F (Feb 15, 3:54 pm)93% (Feb 11, 2:36 am)30.28 "Hg (Feb 11, 2:36 am)
Low36 °F (Feb 24, 1:54 am)37% (Feb 24, 3:54 pm)29.30 "Hg (Feb 17, 5:54 pm)
Average56 °F72%30.03 "Hg
* Reported Feb 9 3:54 pm — Feb 24 3:54 pm, Bakersfield, Weather by CustomWeather, © 2017

Note: Actual official high and low records may vary slightly from our data, if they occured in-between our weather recording intervals... More about our weather records

Advertising

Bakersfield Weather History for the Previous 24 Hours

Scroll right to see more
 ConditionsComfort  
Time TempWeatherWind HumidityBarometerVisibility
3:54 pm
Fri, Feb 24
57 °FSunny.3 mph37%30.20 "Hg10 mi
2:54 pm56 °FSunny.5 mph39%30.21 "Hg10 mi
1:54 pm55 °FSunny.7 mph44%30.22 "Hg10 mi
12:54 pm52 °FSunny.No wind45%30.24 "Hg10 mi
11:54 am52 °FSunny.No wind45%30.27 "Hg10 mi
10:54 am49 °FSunny.No wind57%30.27 "Hg10 mi
9:54 am47 °FSunny.3 mph61%30.28 "Hg10 mi
8:54 am44 °FSunny.3 mph68%30.28 "Hg10 mi
7:54 am40 °FSunny.6 mph80%30.25 "Hg10 mi
6:54 am37 °FSunny.6 mph86%30.24 "Hg10 mi
5:54 am36 °FClear.6 mph89%30.24 "Hg10 mi
4:54 am36 °FClear.5 mph89%30.22 "Hg10 mi
3:54 am36 °FClear.No wind82%30.21 "Hg10 mi
2:54 am37 °FClear.No wind79%30.22 "Hg10 mi
1:54 am36 °FClear.No wind82%30.22 "Hg10 mi
12:54 am39 °FClear.No wind76%30.21 "Hg10 mi
11:54 pm
Thu, Feb 23
40 °FPassing clouds.No wind80%30.21 "Hg10 mi
10:54 pm42 °FOvercast.No wind76%30.20 "Hg10 mi
9:54 pm42 °FPassing clouds.No wind71%30.19 "Hg10 mi
8:54 pm41 °FClear.3 mph74%30.17 "Hg10 mi
7:54 pm42 °FClear.No wind71%30.16 "Hg10 mi
6:54 pm46 °FClear.No wind63%30.15 "Hg10 mi
5:54 pm48 °FClear.6 mph59%30.14 "Hg10 mi
Weather by CustomWeather, © 2017

See weather overviewHow to use our weather pages